This is the latest recevied weather packets stored in our database for station/object KD9DOE. If no packets are shown the sender has not sent any weather packets the latest 1 day(s).
| Time | Temp. | Humidity | Pressure | Rain* | Wind** | Luminosity | Snow |
|---|---|---|---|---|---|---|---|
| 1777998855 | 12.78° C | 30% | 1008.9 hPa | 0 mm | 2.24 m/s, 281° | 699 W/m² | - |
| 1777998554 | 12.78° C | 32% | 1009 hPa | 0 mm | 1.34 m/s, 267° | 737 W/m² | - |
| 1777998249 | 12.22° C | 32% | 1008.8 hPa | 0 mm | 0.89 m/s, 292° | 566 W/m² | - |
| 1777997946 | 12.22° C | 31% | 1008.8 hPa | 0 mm | 1.34 m/s, 334° | 660 W/m² | - |
| 1777997643 | 12.22° C | 30% | 1009.1 hPa | 0 mm | 1.79 m/s, 322° | 638 W/m² | - |
| 1777997340 | 12.22° C | 32% | 1009 hPa | 0 mm | 1.34 m/s, 306° | 540 W/m² | - |
| 1777997038 | 12.22° C | 31% | 1009 hPa | 0 mm | 2.24 m/s, 322° | 601 W/m² | - |
| 1777996735 | 11.67° C | 31% | 1009.4 hPa | 0 mm | 0.45 m/s, 22° | 639 W/m² | - |
| 1777996430 | 12.22° C | 30% | 1009 hPa | 0 mm | 0.89 m/s, 315° | 547 W/m² | - |
| 1777996127 | 11.67° C | 31% | 1009 hPa | 0 mm | 0.89 m/s, 287° | 667 W/m² | - |
| 1777995823 | 12.22° C | 30% | 1009.1 hPa | 0 mm | 1.34 m/s, 325° | 643 W/m² | - |
| 1777995520 | 12.22° C | 29% | 1009 hPa | 0 mm | 0 m/s | 619 W/m² | - |
| 1777995217 | 12.22° C | 30% | 1008.8 hPa | 0 mm | 0 m/s | 628 W/m² | - |
| 1777994914 | 11.67° C | 27% | 1009 hPa | 0 mm | 0.89 m/s, 246° | 619 W/m² | - |
| 1777994612 | 11.67° C | 27% | 1008.9 hPa | 0 mm | 0.45 m/s, 272° | 608 W/m² | - |
| 1777994311 | 11.67° C | 27% | 1008.9 hPa | 0 mm | 0.45 m/s, 340° | 549 W/m² | - |
| 1777994008 | 11.67° C | 28% | 1008.6 hPa | 0 mm | 0.45 m/s, 46° | 598 W/m² | - |
| 1777993705 | 11.11° C | 30% | 1008.8 hPa | 0 mm | 0.89 m/s, 2° | 556 W/m² | - |
| 1777993402 | 11.11° C | 28% | 1008.7 hPa | 0 mm | 0.89 m/s, 29° | 523 W/m² | - |
| 1777993097 | 11.11° C | 29% | 1009 hPa | 0 mm | 0.45 m/s, 184° | 509 W/m² | - |
| 1777992796 | 11.11° C | 27% | 1008.8 hPa | 0 mm | 1.34 m/s, 322° | 430 W/m² | - |
| 1777992493 | 11.67° C | 27% | 1008.9 hPa | 0 mm | 1.34 m/s, 301° | 549 W/m² | - |
| 1777992191 | 11.11° C | 29% | 1008.6 hPa | 0 mm | 0.89 m/s, 325° | 460 W/m² | - |
| 1777991888 | 11.11° C | 30% | 1008.8 hPa | 0 mm | 0.89 m/s, 297° | 450 W/m² | - |
| 1777991586 | 10.56° C | 30% | 1009 hPa | 0 mm | 0.89 m/s, 321° | 475 W/m² | - |
* Rain latest hour (hover to see other rain measurements)
** Current wind speed in m/s (hover to see current wind gust speed)